Location: Unspecified
(48.2082°N, 0.0000°E)
Time: 21:18:36
(UTC+00:00)

Transit 4A - Pass Details

Date: 24 June 2019
Orbit: 862 x 982 km, 66.8° (Epoch: 18 July)

Event Time Altitude Azimuth Distance (km) Brightness Sun altitude
Rises 16:31:35 0° 323° (NW) 3,693 11.5 32.2°
Reaches altitude 10° 16:34:11 10° 321° (NW) 2,735 11.0 31.7°
Maximum altitude 16:40:31 66° 241° (WSW) 1,048 9.2 30.7°
Drops below altitude 10° 16:46:41 10° 160° (SSE) 2,658 10.2 29.7°
Sets 16:49:11 0° 158° (SSE) 3,582 10.7 29.2°
